Flag for Germany Weather past 2 weeks in Wunstorf, Lower Saxony, Germany

Now
86 °F

Scattered clouds.


Feels Like: 92 °F
Forecast: 56 / 71 °F
Wind: 9 mph from Northeast

Location: Wunstorf Airport

Current Time: Aug 31, 2015 at 4:17:06 PM

Latest Report: Aug 31, 2015 at 3:20 PM


Visibility: N/A

Pressure: 29.80 "Hg

Humidity: 62%

Dew point: 72 °F

Location of WunstorfLocation

Historic Weather in Wunstorf — Graph

°F

Wunstorf temperature yesterday

Maximum temperature yesterday: 84 °F (at 5:20 PM)
Minimum temperature yesterday: 59 °F (at 5:20 AM)
Average temperature yesterday: 70 °F

Past Weeks' High & Low Weather Summary

 TemperatureHumidityPressure
High84 °F (Aug 30, 5:20 PM)100% (Aug 16, 11:20 PM)30.27 "Hg (Aug 16, 11:20 PM)
Low50 °F (Aug 29, 6:20 AM)32% (Aug 22, 1:20 PM)29.59 "Hg (Aug 24, 6:20 PM)
Average65 °F76%29.98 "Hg
* Reported Aug 16 2:20 PM — Aug 31 2:20 PM, Wunstorf, Weather by CustomWeather, © 2015

Note: Actual official high and low records may vary slightly from our data, if they occured in-between our weather recording intervals... More about our weather records

Advertising

Wunstorf weather history for previous 24 hours

 ConditionsComfort  
Time TempWeatherWind HumidityBarometerVisibility
2:20 PM
Mon, Aug 31
82 °FScattered clouds.10 mph66%29.83 "HgN/A
1:20 PM81 °FPartly sunny.13 mph62%29.86 "HgN/A
12:20 PM77 °FPartly sunny.10 mph74%29.89 "HgN/A
11:20 AM75 °FScattered clouds.7 mph83%29.92 "HgN/A
10:20 AM73 °FPartly sunny.7 mph94%29.92 "Hg5 mi
9:47 AM70 °FFog.5 mph100%29.92 "Hg2 mi
9:20 AM68 °FFog.5 mph100%29.92 "Hg1 mi
8:20 AM66 °FFog.3 mph100%29.95 "Hg0 mi
7:20 AM66 °FFog.3 mph100%29.95 "Hg0 mi
6:20 AM66 °FFog.2 mph100%29.95 "Hg0 mi
5:20 AM68 °FMild.5 mph94%29.95 "Hg0 mi
4:20 AM68 °FMild.1 mph94%29.98 "Hg1 mi
3:20 AM68 °FMild.2 mph94%29.98 "Hg0 mi
2:20 AM68 °FMild.2 mph94%29.98 "Hg0 mi
1:20 AM68 °FMild.3 mph100%29.98 "Hg0 mi
12:20 AM70 °FMild.3 mph94%29.98 "Hg1 mi
11:20 PM
Sun, Aug 30
70 °FMild.2 mph100%29.98 "Hg2 mi
10:20 PM72 °FMild.3 mph94%29.98 "Hg3 mi
9:20 PM73 °FMild.3 mph94%29.98 "Hg3 mi
8:20 PM77 °FWarm.7 mph83%29.98 "Hg3 mi
7:20 PM81 °FWarm.7 mph79%29.98 "Hg3 mi
6:20 PM84 °FWarm.5 mph62%29.98 "Hg3 mi
5:20 PM84 °FWarm.5 mph62%29.98 "Hg3 mi
4:20 PM82 °FWarm.7 mph62%29.98 "Hg3 mi
Weather by CustomWeather, © 2015

See weather overviewHow to use our weather pages